THOR ABLESTAR DEB, 1521

Orbit data source: Space-Track

THOR ABLESTAR DEB, 1521 is space debris in LEO originally from a launch on Fri, 13 Aug 1965 UTC launched from the Air Force Western Test Range (AFWTR). Debris objects in space refer to the collection of defunct objects orbiting the Earth. Examples of debris include non-operational satellites, rocket bodies, and fragments generated from explosions, collisions, or faulty payload assembly.

Loading next visibility...
THOR ABLESTAR DEB details
Identifier
1521, 1965-065K
Orbit
LEO
Last TLE update18 hours ago
Origin
Flag of USNRL (US)
ManufacturerNRL
MissionSpacecraft
Bus & MotorUnknown
MassUnknown
Launch date (UTC)
1965-08-13 (59 years ago)
Launch vehicleUnknown
Launch site
Air Force Western Test Range (AFWTR)
Object type
Payload
Rocket body
Debris
Shape & HBRUnknown
Radar Cross SectionSmall (<0.1 m²)

Expand to show TLE details & history

TLE from 18 hours ago
0 THOR ABLESTAR DEB
1 01521U 65065K   24355.88725587  .00000044  00000-0  70289-4 0  9998
2 01521  89.9882 209.8827 0069092 349.4601  21.7498 13.33248020887015
Epoch: 2024-12-20T21:17Z
Definitive object data (Epoch: 2024-12-20T21:17:38.907Z)
Latitude11.45941°
Longitude160.52665°
Altitude1,088.541 km
Speed7.332 km/s
True Right ascension13h 59m 32s
True Declination11° 23' 44"
Sunlit
Object was in daylight at TLE epoch
Visualization TLE readout
Latitude-57.48623°
Longitude160.505°
Altitude1,119.765 km
Speed7.31 km/s
Apparent Right ascension02h 03m 33s
Apparent Declination-85° 15' 24"
Sunlit
Object is in daylight
Visualization observer readout
Local Sidereal Time14:00:10
Azimuth180.098° SSW
Elevation-44.659°
Doppler factor1
Orbital elements
Apogee altitude1,183.497 km
Perigee altitude1,079.725 km
Semi-major axis7,509.748 km
Eccentricity0.0069092
Inclination89.9882°
RAAN209.8827°
Arg. of periapsis349.4601°
True anomaly22.04555°
Mean anomaly21.7498°
Eccentric anomaly21.89744°
Mean motion3.33507 °/min
BSTAR0.000070289
Orbital period107.94 mins
Loading maneuver chart data...
Loading historical data...
Loading historical data...
Loading historical data...
Loading historical data...
Loading historical data...
Loading historical data...
Loading historical data...

THOR ABLESTAR DEB Visibility forecast

Observer location: undefined°, undefined

Span
Click to sort rows by Start time (UTC) header in descending order
Start Az.
Max El. time (UTC)
Max El. Az.
Max El.
End time (UTC)
End Az.
12 mins2024-12-21 15:20:57.519Z196.246° SSW2024-12-21 15:26:57.519Z278.452° WNW39.375°2024-12-21 15:32:57.519Z348° N
12 mins2024-12-22 02:39:57.519Z6.671° NNE2024-12-22 02:44:57.519Z55.803° ENE44.029°2024-12-22 02:51:57.519Z177.831° S
7 mins2024-12-22 04:28:57.519Z320.971° NNW2024-12-22 04:31:57.519Z293.078° NW17.398°2024-12-22 04:35:57.519Z255.654° W
4 mins2024-12-22 13:03:57.519Z77.885° E2024-12-22 13:04:57.519Z68.387° E13.168°2024-12-22 13:07:57.519Z41.689° NE
11 mins2024-12-22 14:46:57.519Z174.628° S2024-12-22 14:51:57.519Z16.717° NNE44.816°2024-12-22 14:57:57.519Z358.474° N
|